Showing default

TIANPING 3B-02, 61616

Orbit data source: Space-Track

TIANPING 3B-02, 61616 is a payload satellite owned by ZJUNI-SAT (CN) in SSO that was launched on Tue, 22 Oct 2024 UTC via a CHANG ZHENG 6 launch vehicle from the Taiyaun Space Center, China (TSC). Payload-class satellites include a variety of spacecraft equipped with specific instruments for various scientific and technological missions. These include communications satellites like Starlink; space stations such as the ISS; scientific satellites like the Hubble; Earth observation satellites from companies like Planet Labs, Umbra, and HawkEye 360; GPS; miniature CubeSats for education and research; and military/defense satellites.

Loading next visibility...
Identifier
61616, 2024-189C
Orbit
SSO
Country
Flag of CNCN / PRC
Related business
Manufacturer
CASIC/ZJUNI
Mission
Defense Calibration
Bus & Motor
TP-3, Unknown motor
Mass
200 kg wet, ~200 kg dry
Launch date (UTC)
2024-10-22 (2 years ago)
Launch vehicle
CHANG ZHENG 6
Launch site
Taiyaun Space Center, China (TSC)
Object type
Payload
Rocket body
Debris
Shape & HBR
Box, 0.3 m
Radar Cross Section
0.135 m², Medium (>0.1 m² and < 1m²)

Expand to show TLE details & history
Last TLE update: 7 hours ago

TLE from 7 hours ago
0 TIANPING 3B-02
1 61616U 24189C   26122.98182580  .00001313  00000-0  10754-3 0  9996
2 61616  97.5252 144.6513 0002670  91.7768 268.3762 15.00954735 83665
Epoch: 2026-05-02T23:33Z
TLE epoch observation values (Epoch: 2026-05-02T23:33:49.749Z)
Latitude
-0.00003°
Longitude
-69.69791°
Altitude
567.065 km
Speed
7.578 km/s
True Right ascension
09h 38m 36s
True Declination
0° 00' 00"
Sunlit
Object was in daylight at epoch
Visualization orbit readout
Latitude
Unknown
Longitude
Unknown
Altitude
Unknown
Speed
Unknown
Apparent Right ascension
Unknown
Apparent Declination
Unknown
Sunlit
N/A
Visualization observer readout
Local Sidereal Time
14:04:21
Azimuth
Unknown
Elevation
Unknown
Doppler factor
Unknown
Orbital elements
Apogee altitude
562.8 km
Perigee altitude
559.095 km
Semi-major axis
6,939.084 km
Eccentricity
0.00027
Inclination
97.5252°
RAAN
144.6513°
Arg. of periapsis
91.7768°
True anomaly
268.34562°
Mean anomaly
268.3762°
Eccentric anomaly
268.36091°
Mean motion
3.75483 °/min
Orbital period
95.88 mins
BSTAR
0.00010754
Loading maneuver chart data...
Computing Atmospheric mass density...
Loading historical data...
Loading historical data...
Loading historical data...
Loading historical data...
Loading historical data...
Loading historical data...
Loading historical data...
Other satellites on launch #189 in the year 2024 (2024-10-22 UTC)

Documentation

Showing up to 5 results
|